Location: Unspecified
(0.0000°N, 0.0000°E)
Time: 07:24:32
(UTC+00:00)

Altair - Visible Passes

Search period start: 03 April 2020 00:00
Search period end: 13 April 2020 00:00
Orbit: 1501 x 1682 km, 47.2° (Epoch: 02 April)

Date Brightness Start Highest point End Pass type
(mag) Time Alt. Az. Time Alt. Az. Time Alt. Az.
03 Apr 9.4 21:19:06 10° NNW 21:20:01 13° N 21:20:01 13° N visible
04 Apr 9.1 20:54:15 10° N 20:56:30 18° N 20:56:30 18° N visible
05 Apr 8.8 20:29:27 10° N 20:33:01 21° NNE 20:33:01 21° NNE visible
06 Apr 8.7 20:04:42 10° N 20:09:36 23° NNE 20:09:36 23° NNE visible
06 Apr 9.6 22:07:11 10° NW 22:07:39 12° NW 22:07:39 12° NW visible
07 Apr 8.6 19:40:02 10° N 19:46:14 22° NE 19:46:14 22° NE visible
07 Apr 9.2 21:41:59 10° NW 21:44:17 20° NW 21:44:17 20° NW visible
08 Apr 8.6 19:15:25 10° N 19:21:27 19° NE 19:22:56 18° ENE visible
08 Apr 8.7 21:16:49 10° NW 21:20:59 32° NW 21:20:59 32° NW visible
09 Apr 8.8 18:50:56 10° N 18:56:13 16° NE 18:59:41 13° ENE visible
09 Apr 8.0 20:51:40 10° NW 20:57:45 48° NW 20:57:45 48° NW visible
10 Apr 8.9 18:26:39 10° NNE 18:30:58 14° NE 18:35:19 10° ENE visible
10 Apr 7.4 20:26:33 10° NW 20:34:34 70° NNW 20:34:34 70° NNW visible
11 Apr 7.3 20:01:29 10° NNW 20:10:39 72° NE 20:11:26 69° E visible
11 Apr 9.6 22:08:27 10° W 22:09:31 13° W 22:09:31 13° W visible
12 Apr 7.4 19:36:25 10° NNW 19:45:30 64° NE 19:48:22 46° ESE visible
12 Apr 9.2 21:42:48 10° W 21:46:27 21° W 21:46:27 21° W visible
